Regional Weather Roundup
Issued by NWS

Home | Current Version | Previous Version | Text Only | Print | Product List | Glossary On
Versions: 1 2 3 4 5 6 7 8 9 10 11 12 13 14 15 16 17 18 19 20 21 22 23 24 25 26 27 28 29 30 31 32 33 34 35 36 37 38 39 40 41 42 43 44 45 46 47 48 49 50
000
ASUS44 KLIX 031612
RWRLA
LOUISIANA WEATHER ROUNDUP
NATIONAL WEATHER SERVICE NEW ORLEANS LA
1100 AM CDT SUN MAY 03 2015

NOTE: "FAIR" INDICATES FEW OR NO CLOUDS BELOW 12,000 FEET WITH NO
      SIGNIFICANT WEATHER AND/OR OBSTRUCTIONS TO VISIBILITY.
      SKY/WX - SKY CONDITION AND SIGNIFICANT WEATHER.
      TMP - AIR TEMPERATURE.    DP   - DEWPOINT TEMPERATURE.
      RH  - RELATIVE HUMIDITY.  PRES - PRESSURE.
      HX  - HEAT INDEX.         WCI  - WIND CHILL INDEX.

*  THESE STATIONS ARE NOT NWS OR FAA STATIONS AND ARE NOT UNDER
   NWS QUALITY CONTROL.

LAZ040-048-061>063-065-066-069-031700-
SOUTHEAST LOUISIANA

CITY           SKY/WX    TMP DP  RH WIND       PRES   REMARKS
N.O. AUDUBON     N/A     81  59  47 MISG        N/A
N.O. INTL ARPT MOSUNNY   77  54  44 VRB3      30.13R
N.O. LAKEFRONT SUNNY     78  57  48 NE7       30.14R
SLIDELL        SUNNY     78  55  44 NE7       30.13S
BATON ROUGE    PTSUNNY   77  54  44 W5        30.13R
BOOTHVILLE     SUNNY     76  53  44 E8        30.15R
BELLE CHASSE   MOSUNNY   77  57  50 SE9       30.13R
BOGALUSA*        N/A     80  49  34 SE9       30.16R
GALLIANO*      SUNNY     79  58  48 MISG      30.13S
NEW ROADS*     FAIR      76  60  58 CALM      30.13S
GONZALES*      FAIR      78  58  50 CALM      30.12S
HAMMOND*       CLOUDY    79  59  50 CALM      30.14S
HOUMA*         NOT AVBL
PORT FOURCHON*   N/A     75  57  53 SE9       30.16S

$$

LAZ041-044-053-054-031700-
SOUTHWEST LOUISIANA

CITY           SKY/WX    TMP DP  RH WIND       PRES   REMARKS
LAKE CHARLES   MOSUNNY   76  59  55 SW9       30.11R
LAFAYETTE      MOSUNNY   77  59  53 VRB5      30.12R
PATTERSON      MOSUNNY  N/A N/A N/A S6        30.13S
SALT POINT       N/A     78  60  53 VRB5      30.11S
NEW IBERIA     SUNNY     78  61  55 VRB3      30.13R
CHENAULT AIRPK PTSUNNY   79  61  53 S10       30.11R

$$

LAZ027-028-031700-
CENTRAL LOUISIANA

CITY           SKY/WX    TMP DP  RH WIND       PRES   REMARKS
FORT POLK      MOSUNNY   76  60  58 S10       30.10S
ALEXANDRIA INT PTSUNNY   76  60  57 SW6       30.10S
ALEXANDRIA     PTSUNNY   72  62  71 CALM      30.13R

$$

LAZ001-002-031700-
NORTHWEST LOUISIANA

CITY           SKY/WX    TMP DP  RH WIND       PRES   REMARKS
SHREVEPORT     SUNNY     77  58  51 S7        30.08R
BARKSDALE AFB  SUNNY     77  56  49 SW8       30.09R
DTN SHREVEPORT SUNNY     76  55  48 SW10      30.09R

$$

LAZ014-016-031700-
NORTHEAST LOUISIANA

CITY           SKY/WX    TMP DP  RH WIND       PRES   REMARKS
MONROE         SUNNY     79  58  48 SW7       30.11R
TALLULAH       SUNNY     78  61  55 VRB3      30.12R

$$




USA.gov is the U.S. government's official web portal to all federal, state and local government web resources and services.